Weather History for CWCL - July, 2013

Change the Weather History Date:

Tuesday, July 30, 2013

  Actual Average Record
Temperature  
Mean Temperature 63 °F -  
Max Temperature 78 °F 73 °F 91 °F (2003)
Min Temperature 48 °F 44 °F 41 °F (2002)
Degree Days  
Heating Degree Days 2    
Growing Degree Days 13 (Base 50)    
Moisture  
Dew Point 40 °F    
Average Humidity 41    
Maximum Humidity 62    
Minimum Humidity 19    
Precipitation  
Precipitation 0.04 in - - ()
Sea Level Pressure  
Sea Level Pressure 30.14 in    
Wind  
Wind Speed 3 mph ()    
Max Wind Speed 7 mph    
Max Gust Speed -    
Visibility 9.0 miles    
Events      
Averages and records for this station are not official NWS values.
T = Trace of Precipitation, MM = Missing Value Source: Averaged Metar Reports

Daily Weather History Graph

Daily Weather History Graph

Search for Another Location

Airport or City:

Trip Planner

Search our weather history database for the weather conditions in past years. The results will help you decide how hot, cold, wet, or windy it might be!

Date:

Astronomy

Jul. 30, 2013 Rise Set
Actual Time 5:28 AM PDT 8:55 PM PDT
Civil Twilight 4:48 AM PDT 9:35 PM PDT
Nautical Twilight 3:53 AM PDT 10:29 PM PDT
Astronomical Twilight 2:37 AM PDT 11:44 PM PDT
Moon No Moon Rise 3:18 PM PDT (7/30)
Length of Visible Light 16h 47m
Length of Day
15h 26m
Last Quarter, 40% of the Moon is Illuminated
Jul 30
Last Quarter
Aug 6
New
Aug 14
First Quarter
Aug 20
Full
Aug 28
Last Quarter

Hourly Weather History & Observations

Time (PDT) Temp. Dew Point Humidity Pressure Visibility Wind Dir Wind Speed Gust Speed Precip Events Conditions
12:00 AM 57.2 °F 33.8 °F 41% 30.09 in 9.0 mi NW 5.8 mph - N/A   Clear
1:00 AM 55.4 °F 35.6 °F 47% 30.10 in 9.0 mi WNW 3.5 mph - N/A   Clear
2:00 AM 56 °F 37 °F 36% 30.10 in 9 mi NW 4.6 mph - -  
2:00 AM 57.2 °F 37.4 °F 48% 30.10 in 9.0 mi NW 4.6 mph - N/A   Clear
3:00 AM 51.8 °F 35.6 °F 54% 30.11 in 9.0 mi NW 4.6 mph - N/A   Clear
4:00 AM 50.0 °F 35.6 °F 58% 30.12 in 9.0 mi NE 2.3 mph - N/A   Partly Cloudy
5:00 AM 48 °F 35 °F 49% 30.14 in 9 mi Calm Calm - -  
5:00 AM 48.2 °F 35.6 °F 62% 30.14 in 9.0 mi East 2.3 mph - N/A   Clear
6:00 AM 50.0 °F 37.4 °F 62% 30.14 in 9.0 mi Calm Calm - N/A   Scattered Clouds
7:00 AM 55.4 °F 39.2 °F 54% 30.14 in 9.0 mi ESE 2.3 mph - N/A   Mostly Cloudy
8:00 AM 61 °F 40 °F 35% 30.15 in 9 mi Calm Calm - -  
8:00 AM 60.8 °F 41.0 °F 48% 30.15 in 9.0 mi Calm Calm - N/A   Partly Cloudy
9:00 AM 66.2 °F 44.6 °F 46% 30.17 in 9.0 mi North 3.5 mph - N/A   Mostly Cloudy
10:00 AM 66.2 °F 44.6 °F 46% 30.18 in 9.0 mi North 5.8 mph - N/A   Mostly Cloudy
11:00 AM 69 °F 45 °F 31% 30.17 in 9 mi North 6.9 mph - -   Overcast
11:00 AM 69.8 °F 44.6 °F 40% 30.17 in 9.0 mi NNW 6.9 mph - N/A   Overcast
12:00 PM 69.8 °F 44.6 °F 40% 30.17 in 9.0 mi NW 2.3 mph - N/A   Clear
1:00 PM 69.8 °F 42.8 °F 38% 30.17 in 9.0 mi North 4.6 mph - N/A   Partly Cloudy
2:00 PM 72 °F 42 °F 23% 30.16 in 9 mi North 3.5 mph - -  
2:00 PM 71.6 °F 42.8 °F 35% 30.16 in 9.0 mi WNW 4.6 mph - N/A   Partly Cloudy
3:00 PM 73.4 °F 42.8 °F 33% 30.16 in 9.0 mi NNW 5.8 mph - N/A   Partly Cloudy
4:00 PM 73.4 °F 41.0 °F 31% 30.15 in 9.0 mi NW 6.9 mph - N/A   Scattered Clouds
5:00 PM 75 °F 41 °F 19% 30.14 in 9 mi NNE 6.9 mph - -  
5:00 PM 75.2 °F 41.0 °F 29% 30.14 in 9.0 mi NE 6.9 mph - N/A   Partly Cloudy
6:00 PM 75.2 °F 39.2 °F 27% 30.14 in 9.0 mi NW 6.9 mph - N/A   Clear
7:00 PM 73.4 °F 39.2 °F 29% 30.12 in 9.0 mi North 3.5 mph - N/A   Partly Cloudy
8:00 PM 67 °F 40 °F 26% 30.13 in 9 mi Calm Calm - -  
8:00 PM 66.2 °F 41.0 °F 40% 30.13 in 9.0 mi Calm Calm - N/A   Clear
9:00 PM 62.6 °F 39.2 °F 42% 30.15 in 9.0 mi WNW 4.6 mph - N/A   Clear
10:00 PM 57.2 °F 37.4 °F 48% 30.17 in 9.0 mi ENE 2.3 mph - N/A   Clear
11:00 PM 54 °F 37 °F 41% 30.19 in 9 mi Calm Calm - -  
11:00 PM 53.6 °F 37.4 °F 54% 30.19 in 9.0 mi Calm Calm - N/A   Clear